Location: Kempten-Allg�u
(47.7257°N, 10.3110°E)
Time: 09:41:32
(UTC+01:00)

ISS - Visible Passes

Search period start: 10 December 2025 00:00
Search period end: 20 December 2025 00:00
Orbit: 416 x 420 km, 51.6° (Epoch: 09 December)

Date Brightness Start Highest point End Pass type
(mag) Time Alt. Az. Time Alt. Az. Time Alt. Az.
11 Dec -0.6 07:13:53 10° S 07:16:14 18° SE 07:18:36 10° E visible
12 Dec -0.3 06:27:23 10° SSE 06:28:32 11° SE 06:29:40 10° ESE visible
13 Dec -2.2 07:13:40 10° SW 07:16:51 40° SE 07:20:03 10° ENE visible
14 Dec -1.5 06:26:07 10° SSW 06:29:00 26° SE 06:31:52 10° E visible
15 Dec -1.0 05:38:52 10° S 05:41:10 17° SE 05:43:28 10° E visible
15 Dec -3.7 07:14:10 10° WSW 07:17:32 85° SSE 07:20:56 10° ENE visible
16 Dec -0.4 04:53:44 11° SE 04:53:44 11° SE 04:54:19 10° ESE visible
16 Dec -3.2 06:26:43 14° SW 06:29:32 59° SSE 06:32:52 10° ENE visible
17 Dec -2.6 05:41:18 38° SSE 05:41:33 38° SE 05:44:43 10° ENE visible
17 Dec -3.6 07:14:56 10° W 07:18:16 56° NNW 07:21:36 10° ENE visible
18 Dec -0.6 04:55:38 15° E 04:55:38 15° E 04:56:26 10° E visible
18 Dec -3.8 06:28:34 29° W 06:30:08 72° NNW 06:33:31 10° ENE visible
19 Dec -3.1 05:42:43 53° ENE 05:42:43 53° ENE 05:45:23 10° ENE visible
19 Dec -3.2 07:15:44 10° W 07:18:59 42° N 07:22:13 10° ENE visible
